QPF
0.00 0.00 0.01 0.01 0.01 0.01 0.01 0.01 0.02 0.03 0.03 0.03 0.02 0.02 0.02 0.01 0.02 0.03 0.02 0.03 0.03 0.03 0.04 0.04 0.04 0.03 0.02 0.01 0.01 0.01 0.01 0.01 0.01 0.01 0.01 0.01 0.01 0.00 0.01 0.01 0.01 0.01 0.01 0.01
0.01 0.01 0.01 0.01 0.01 0.01 0.01 0.01 0.02 0.03 0.03 0.01 0.01 0.01 0.01 0.01 0.03 0.03 0.03 0.03 0.05 0.05 0.06 0.06 0.04 0.02 0.02 0.01 0.01 0.01 0.01 0.01 0.01 0.01 0.01 0.01 0.01 0.01 0.01 0.02 0.02 0.02 0.02 0.01
0.02 0.01 0.02 0.03 0.03 0.02 0.02 0.01 0.02 0.03 0.03 0.01 0.01 0.02 0.01 0.02 0.04 0.07 0.07 0.07 0.07 0.07 0.06 0.05 0.04 0.04 0.04 0.03 0.03 0.02 0.02 0.02 0.02 0.02 0.01 0.01 0.01 0.02 0.02 0.02 0.02 0.02 0.02 0.02
0.02 0.03 0.05 0.04 0.03 0.03 0.03 0.02 0.01 0.01 0.01 0.02 0.02 0.02 0.02 0.03 0.05 0.07 0.09 0.09 0.09 0.08 0.07 0.07 0.08 0.08 0.07 0.06 0.05 0.04 0.04 0.03 0.03 0.02 0.01 0.01 0.02 0.02 0.02 0.02 0.02 0.02 0.02 0.02
0.03 0.04 0.05 0.04 0.03 0.04 0.05 0.04 0.04 0.03 0.01 0.01 0.01 0.01 0.03 0.04 0.05 0.06 0.07 0.07 0.08 0.07 0.07 0.08 0.09 0.10 0.08 0.06 0.04 0.03 0.04 0.03 0.03 0.02 0.02 0.02 0.02 0.03 0.02 0.02 0.02 0.02 0.02 0.02
0.02 0.02 0.04 0.04 0.02 0.02 0.04 0.06 0.03 0.03 0.01 0.01 0.01 0.02 0.02 0.03 0.04 0.03 0.03 0.04 0.05 0.06 0.08 0.09 0.11 0.11 0.09 0.07 0.05 0.04 0.03 0.02 0.02 0.02 0.02 0.02 0.03 0.03 0.02 0.03 0.03 0.02 0.02 0.01
0.02 0.02 0.02 0.01 0.01 0.02 0.05 0.05 0.02 0.01 0.01 0.01 0.01 0.02 0.02 0.03 0.03 0.03 0.03 0.03 0.03 0.04 0.07 0.10 0.11 0.09 0.07 0.07 0.05 0.03 0.02 0.02 0.02 0.02 0.01 0.01 0.02 0.02 0.02 0.02 0.03 0.03 0.02 0.02
0.01 0.02 0.03 0.01 0.02 0.02 0.02 0.01 0.01 0.02 0.03 0.03 0.03 0.03 0.02 0.02 0.01 0.01 0.01 0.02 0.02 0.03 0.05 0.07 0.07 0.05 0.06 0.06 0.05 0.02 0.02 0.03 0.03 0.02 0.01 0.01 0.02 0.02 0.02 0.03 0.03 0.03 0.03 0.04
0.01 0.02 0.01 0.01 0.01 0.01 0.01 0.00 0.01 0.03 0.03 0.03 0.02 0.01 0.02 0.02 0.01 0.01 0.01 0.02 0.02 0.03 0.05 0.07 0.05 0.05 0.08 0.07 0.04 0.03 0.03 0.03 0.02 0.01 0.01 0.01 0.01 0.02 0.02 0.03 0.03 0.02 0.02 0.04
0.01 0.01 0.00 0.01 0.01 0.01 0.01 0.00 0.01 0.01 0.01 0.01 0.01 0.01 0.01 0.02 0.01 0.01 0.02 0.02 0.02 0.03 0.04 0.03 0.02 0.05 0.06 0.04 0.02 0.02 0.04 0.03 0.02 0.01 0.01 0.01 0.01 0.01 0.01 0.02 0.03 0.02 0.01 0.02
0.01 0.01 0.01 0.01 0.01 0.01 0.00 0.00 0.00 0.00 0.00 0.00 0.01 0.01 0.02 0.02 0.02 0.02 0.02 0.02 0.02 0.02 0.02 0.01 0.02 0.03 0.03 0.02 0.03 0.04 0.05 0.04 0.03 0.02 0.01 0.01 0.01 0.01 0.01 0.01 0.01 0.01 0.01 0.01
0.02 0.01 0.01 0.01 0.01 0.00 0.00 0.00 0.00 0.00 0.00 0.00 0.01 0.01 0.01 0.01 0.02 0.01 0.02 0.02 0.02 0.02 0.02 0.02 0.02 0.02 0.02 0.02 0.03 0.05 0.05 0.04 0.03 0.02 0.01 0.01 0.00 0.00 0.00 0.00 0.00 0.00 0.00 0.00
0.01 0.00 0.00 0.00 0.00 0.00 0.00 0.01 0.00 0.00 0.00 0.01 0.01 0.01 0.01 0.01 0.01 0.02 0.02 0.02 0.02 0.02 0.02 0.02 0.02 0.01 0.02 0.02 0.03 0.03 0.03 0.03 0.02 0.02 0.01 0.01 0.01 0.01 0.01 0.00 0.00 0.00 0.00 0.00
0.00 0.00 0.00 0.00 0.01 0.00 0.00 0.00 0.00 0.00 0.00 0.01 0.01 0.01 0.01 0.01 0.01 0.02 0.02 0.01 0.01 0.01 0.01 0.02 0.02 0.01 0.01 0.02 0.03 0.03 0.02 0.01 0.01 0.01 0.01 0.01 0.01 0.01 0.01 0.01 0.01 0.00 0.00 0.00
0.00 0.00 0.00 0.00 0.01 0.00 0.00 0.00 0.00 0.01 0.00 0.01 0.01 0.01 0.01 0.01 0.01 0.01 0.01 0.00 0.00 0.01 0.01 0.01 0.01 0.01 0.01 0.01 0.01 0.01 0.01 0.01 0.01 0.01 0.01 0.00 0.00 0.01 0.00 0.00 0.00 0.00 0.00 0.00
0.00 0.00 0.00 0.00 0.00 0.00 0.00 0.00 0.00 0.01 0.01 0.01 0.01 0.01 0.01 0.01 0.01 0.00 0.00 0.00 0.01 0.01 0.01 0.01 0.01 0.01 0.01 0.01 0.01 0.01 0.00 0.00 0.00 0.01 0.01 0.01 0.00 0.01 0.01 0.00 0.00 0.00 0.00 0.00
0.00 0.00 0.00 0.00 0.00 0.00 0.00 0.00 0.00 0.01 0.01 0.01 0.00 0.00 0.00 0.00 0.00 0.00 0.00 0.00 0.01 0.01 0.01 0.01 0.01 0.00 0.00 0.00 0.01 0.01 0.00 0.00 0.00 0.01 0.01 0.01 0.01 0.01 0.01 0.00 0.00 0.00 0.00 0.00
0.00 0.00 0.00 0.00 0.00 0.00 0.00 0.00 0.00 0.01 0.01 0.00 0.00 0.00 0.00 0.00 0.00 0.00 0.00 0.00 0.00 0.00 0.00 0.01 0.00 0.00 0.00 0.00 0.00 0.00 0.00 0.00 0.00 0.01 0.01 0.01 0.00 0.01 0.01 0.01 0.01 0.01 0.00 0.00
0.00 0.00 0.00 0.00 0.00 0.00 0.00 0.00 0.00 0.00 0.00 0.00 0.00 0.00 0.00 0.00 0.00 0.00 0.00 0.00 0.00 0.00 0.00 0.00 0.00 0.00 0.00 0.00 0.00 0.00 0.00 0.00 0.00 0.00 0.00 0.00 0.00 0.01 0.00 0.00 0.00 0.00 0.00 0.00
0.00 0.00 0.00 0.00 0.00 0.00 0.00 0.00 0.00 0.00 0.00 0.00 0.00 0.00 0.00 0.00 0.00 0.00 0.00 0.01 0.01 0.00 0.00 0.00 0.00 0.00 0.00 0.00 0.00 0.00 0.00 0.00 0.00 0.00 0.00 0.00 0.00 0.00 0.00 0.00 0.00 0.00 0.00 0.00
0.00 0.00 0.00 0.00 0.00 0.00 0.00 0.00 0.00 0.00 0.00 0.00 0.00 0.00 0.00 0.00 0.00 0.00 0.00 0.01 0.00 0.00 0.00 0.00 0.00 0.00 0.00 0.00 0.00 0.00 0.00 0.00 0.00 0.00 0.00 0.00 0.00 0.00 0.00 0.00 0.00 0.00 0.00 0.00
0.00 0.00 0.00 0.00 0.00 0.00 0.00 0.00 0.00 0.00 0.00 0.00 0.00 0.00 0.00 0.00 0.00 0.00 0.00 0.00 0.00 0.00 0.00 0.00 0.00 0.00 0.00 0.00 0.00 0.00 0.00 0.00 0.00 0.00 0.00 0.00 0.00 0.00 0.00 0.00 0.00 0.00 0.00 0.00
0.00 0.00 0.00 0.00 0.00 0.00 0.01 0.01 0.01 0.00 0.00 0.00 0.00 0.00 0.00 0.00 0.00 0.00 0.00 0.00 0.00 0.00 0.00 0.00 0.00 0.00 0.00 0.00 0.00 0.00 0.00 0.00 0.00 0.00 0.00 0.00 0.00 0.00 0.00 0.00 0.00 0.00 0.00 0.00
0.00 0.00 0.00 0.00 0.00 0.00 0.00 0.00 0.00 0.00 0.00 0.00 0.00 0.00 0.00 0.00 0.00 0.00 0.00 0.00 0.00 0.00 0.00 0.00 0.00 0.00 0.00 0.00 0.00 0.00 0.00 0.00 0.00 0.00 0.00 0.00 0.00 0.00 0.00 0.00 0.00 0.00 0.00 0.00
0.00 0.00 0.00 0.00 0.00 0.00 0.00 0.00 0.00 0.00 0.00 0.00 0.00 0.00 0.00 0.00 0.00 0.00 0.00 0.00 0.00 0.00 0.00 0.00 0.00 0.00 0.00 0.00 0.00 0.00 0.00 0.00 0.00 0.00 0.00 0.00 0.00 0.00 0.00 0.00 0.00 0.00 0.00 0.00
0.00 0.00 0.00 0.00 0.00 0.00 0.00 0.00 0.00 0.00 0.00 0.00 0.00 0.00 0.00 0.00 0.00 0.00 0.00 0.00 0.00 0.00 0.00 0.00 0.00 0.00 0.00 0.00 0.00 0.00 0.00 0.00 0.00 0.00 0.00 0.00 0.00 0.00 0.00 0.00 0.00 0.00 0.00 0.00
0.00 0.00 0.00 0.00 0.00 0.00 0.00 0.00 0.00 0.00 0.00 0.00 0.00 0.00 0.00 0.00 0.00 0.00 0.00 0.00 0.00 0.00 0.00 0.00 0.00 0.00 0.00 0.00 0.00 0.00 0.00 0.00 0.00 0.00 0.00 0.00 0.00 0.00 0.00 0.00 0.00 0.00 0.00 0.00
MSLP
1014.32 1014.56 1014.83 1015.11 1015.36 1015.53 1015.61 1015.59 1015.50 1015.36 1015.25 1015.20 1015.29 1015.54 1015.97 1016.56 1017.28 1018.08 1018.90 1019.67 1020.34 1020.90 1021.33 1021.64 1021.87 1022.04 1022.18 1022.33 1022.50 1022.67 1022.84 1023.00 1023.10 1023.15 1023.13 1023.03 1022.86 1022.66 1022.43 1022.20 1022.00 1021.84 1021.73 1021.67
1015.11 1015.43 1015.77 1016.11 1016.39 1016.58 1016.66 1016.63 1016.51 1016.35 1016.21 1016.14 1016.19 1016.42 1016.81 1017.36 1018.04 1018.80 1019.56 1020.28 1020.91 1021.43 1021.83 1022.12 1022.32 1022.47 1022.60 1022.73 1022.86 1023.00 1023.14 1023.25 1023.33 1023.34 1023.30 1023.19 1023.03 1022.84 1022.65 1022.46 1022.30 1022.18 1022.10 1022.07
1015.93 1016.33 1016.74 1017.12 1017.42 1017.61 1017.68 1017.63 1017.48 1017.29 1017.11 1017.01 1017.03 1017.21 1017.57 1018.08 1018.71 1019.41 1020.13 1020.80 1021.39 1021.87 1022.23 1022.49 1022.67 1022.79 1022.90 1022.99 1023.09 1023.20 1023.30 1023.38 1023.42 1023.42 1023.37 1023.27 1023.15 1023.00 1022.85 1022.72 1022.62 1022.54 1022.50 1022.49
1016.71 1017.16 1017.61 1018.01 1018.32 1018.50 1018.54 1018.46 1018.29 1018.06 1017.86 1017.72 1017.72 1017.87 1018.19 1018.66 1019.25 1019.91 1020.58 1021.20 1021.75 1022.19 1022.52 1022.74 1022.89 1022.98 1023.05 1023.11 1023.17 1023.24 1023.31 1023.36 1023.40 1023.40 1023.37 1023.30 1023.23 1023.14 1023.06 1023.00 1022.96 1022.94 1022.94 1022.95
1017.38 1017.86 1018.31 1018.70 1018.98 1019.13 1019.14 1019.03 1018.83 1018.59 1018.37 1018.23 1018.21 1018.36 1018.66 1019.11 1019.67 1020.29 1020.91 1021.50 1022.00 1022.40 1022.69 1022.88 1022.99 1023.05 1023.08 1023.11 1023.14 1023.18 1023.23 1023.28 1023.31 1023.34 1023.34 1023.33 1023.32 1023.31 1023.31 1023.33 1023.35 1023.39 1023.43 1023.45
1017.89 1018.35 1018.77 1019.12 1019.35 1019.46 1019.43 1019.30 1019.09 1018.86 1018.65 1018.53 1018.54 1018.69 1019.00 1019.44 1019.98 1020.57 1021.16 1021.70 1022.16 1022.51 1022.76 1022.92 1023.00 1023.03 1023.03 1023.04 1023.05 1023.08 1023.13 1023.19 1023.25 1023.31 1023.37 1023.42 1023.48 1023.55 1023.63 1023.72 1023.81 1023.89 1023.97 1024.01
1018.22 1018.62 1018.98 1019.26 1019.43 1019.49 1019.43 1019.29 1019.10 1018.90 1018.75 1018.68 1018.73 1018.93 1019.26 1019.70 1020.23 1020.79 1021.34 1021.83 1022.24 1022.55 1022.76 1022.89 1022.94 1022.96 1022.96 1022.96 1022.97 1023.02 1023.08 1023.17 1023.27 1023.37 1023.49 1023.61 1023.75 1023.88 1024.03 1024.18 1024.32 1024.45 1024.55 1024.60
1018.37 1018.70 1018.97 1019.16 1019.27 1019.28 1019.22 1019.10 1018.95 1018.81 1018.74 1018.75 1018.87 1019.12 1019.49 1019.94 1020.45 1020.97 1021.48 1021.92 1022.28 1022.54 1022.72 1022.82 1022.87 1022.88 1022.89 1022.91 1022.95 1023.03 1023.13 1023.26 1023.40 1023.56 1023.74 1023.92 1024.10 1024.30 1024.49 1024.68 1024.86 1025.02 1025.13 1025.19
1018.40 1018.63 1018.80 1018.92 1018.97 1018.96 1018.90 1018.82 1018.74 1018.70 1018.72 1018.83 1019.04 1019.34 1019.74 1020.19 1020.68 1021.16 1021.60 1021.98 1022.29 1022.51 1022.65 1022.74 1022.79 1022.83 1022.87 1022.93 1023.02 1023.14 1023.29 1023.46 1023.66 1023.86 1024.07 1024.29 1024.52 1024.74 1024.96 1025.17 1025.37 1025.53 1025.65 1025.72
1018.34 1018.48 1018.57 1018.62 1018.63 1018.62 1018.59 1018.58 1018.60 1018.66 1018.79 1019.00 1019.28 1019.64 1020.05 1020.49 1020.93 1021.35 1021.73 1022.04 1022.28 1022.46 1022.59 1022.67 1022.74 1022.81 1022.90 1023.01 1023.16 1023.33 1023.53 1023.75 1023.97 1024.20 1024.44 1024.67 1024.91 1025.14 1025.36 1025.57 1025.76 1025.92 1026.04 1026.11
1018.25 1018.31 1018.34 1018.34 1018.34 1018.35 1018.39 1018.46 1018.58 1018.75 1018.99 1019.29 1019.64 1020.02 1020.43 1020.83 1021.22 1021.57 1021.86 1022.10 1022.29 1022.43 1022.54 1022.63 1022.73 1022.84 1022.98 1023.15 1023.35 1023.57 1023.80 1024.04 1024.28 1024.52 1024.75 1024.97 1025.19 1025.40 1025.61 1025.80 1025.98 1026.13 1026.24 1026.30
1018.17 1018.17 1018.15 1018.15 1018.16 1018.22 1018.32 1018.49 1018.71 1018.99 1019.32 1019.69 1020.08 1020.47 1020.86 1021.21 1021.53 1021.80 1022.01 1022.18 1022.32 1022.42 1022.53 1022.64 1022.77 1022.92 1023.11 1023.32 1023.56 1023.80 1024.05 1024.29 1024.51 1024.73 1024.93 1025.12 1025.30 1025.48 1025.66 1025.83 1025.99 1026.13 1026.23 1026.29
1018.08 1018.05 1018.03 1018.03 1018.09 1018.20 1018.38 1018.63 1018.95 1019.32 1019.72 1020.14 1020.55 1020.94 1021.29 1021.59 1021.83 1022.02 1022.17 1022.28 1022.37 1022.46 1022.57 1022.69 1022.85 1023.04 1023.27 1023.51 1023.75 1024.00 1024.23 1024.44 1024.62 1024.79 1024.94 1025.08 1025.22 1025.36 1025.51 1025.67 1025.81 1025.94 1026.05 1026.11
1017.98 1017.95 1017.94 1017.97 1018.07 1018.25 1018.51 1018.84 1019.23 1019.66 1020.11 1020.56 1020.98 1021.35 1021.66 1021.91 1022.09 1022.23 1022.32 1022.39 1022.46 1022.55 1022.66 1022.81 1022.99 1023.21 1023.44 1023.68 1023.92 1024.13 1024.32 1024.48 1024.60 1024.70 1024.79 1024.88 1024.97 1025.08 1025.21 1025.36 1025.50 1025.64 1025.75 1025.82
1017.85 1017.83 1017.85 1017.92 1018.07 1018.31 1018.62 1019.01 1019.46 1019.93 1020.41 1020.87 1021.29 1021.64 1021.92 1022.13 1022.28 1022.38 1022.45 1022.50 1022.57 1022.67 1022.80 1022.97 1023.17 1023.39 1023.63 1023.85 1024.05 1024.21 1024.34 1024.42 1024.47 1024.50 1024.53 1024.57 1024.62 1024.71 1024.84 1024.98 1025.14 1025.29 1025.42 1025.51
1017.66 1017.67 1017.73 1017.84 1018.03 1018.31 1018.67 1019.10 1019.57 1020.07 1020.56 1021.02 1021.43 1021.77 1022.03 1022.23 1022.36 1022.46 1022.53 1022.60 1022.69 1022.81 1022.96 1023.15 1023.36 1023.59 1023.80 1023.99 1024.14 1024.24 1024.29 1024.30 1024.28 1024.24 1024.21 1024.21 1024.25 1024.33 1024.45 1024.61 1024.79 1024.97 1025.12 1025.22
1017.42 1017.47 1017.56 1017.70 1017.92 1018.23 1018.61 1019.05 1019.54 1020.04 1020.53 1020.99 1021.39 1021.72 1021.99 1022.19 1022.34 1022.45 1022.55 1022.65 1022.78 1022.93 1023.12 1023.32 1023.54 1023.76 1023.95 1024.10 1024.19 1024.23 1024.21 1024.15 1024.07 1023.98 1023.91 1023.88 1023.91 1023.99 1024.13 1024.31 1024.51 1024.71 1024.88 1025.00
1017.16 1017.23 1017.34 1017.51 1017.75 1018.06 1018.44 1018.88 1019.35 1019.85 1020.33 1020.78 1021.18 1021.52 1021.80 1022.02 1022.20 1022.35 1022.49 1022.64 1022.81 1023.00 1023.22 1023.44 1023.66 1023.87 1024.03 1024.14 1024.19 1024.18 1024.11 1024.00 1023.87 1023.75 1023.65 1023.61 1023.64 1023.73 1023.88 1024.07 1024.29 1024.50 1024.68 1024.80
1016.90 1016.99 1017.12 1017.29 1017.53 1017.83 1018.19 1018.61 1019.06 1019.54 1020.00 1020.45 1020.85 1021.20 1021.50 1021.75 1021.97 1022.17 1022.36 1022.55 1022.76 1022.98 1023.22 1023.46 1023.68 1023.87 1024.02 1024.10 1024.12 1024.07 1023.97 1023.84 1023.69 1023.55 1023.45 1023.41 1023.43 1023.53 1023.68 1023.88 1024.09 1024.30 1024.47 1024.59
1016.68 1016.79 1016.91 1017.08 1017.29 1017.57 1017.91 1018.30 1018.72 1019.17 1019.62 1020.06 1020.46 1020.82 1021.14 1021.42 1021.67 1021.91 1022.13 1022.36 1022.59 1022.84 1023.09 1023.33 1023.55 1023.74 1023.87 1023.94 1023.95 1023.90 1023.79 1023.65 1023.51 1023.38 1023.28 1023.24 1023.26 1023.35 1023.49 1023.67 1023.86 1024.04 1024.19 1024.27
1016.52 1016.62 1016.74 1016.89 1017.08 1017.33 1017.63 1017.99 1018.38 1018.81 1019.23 1019.66 1020.06 1020.43 1020.76 1021.06 1021.33 1021.58 1021.82 1022.06 1022.31 1022.56 1022.81 1023.05 1023.27 1023.45 1023.58 1023.66 1023.67 1023.63 1023.54 1023.42 1023.30 1023.18 1023.09 1023.06 1023.07 1023.14 1023.25 1023.39 1023.54 1023.68 1023.77 1023.82
1016.41 1016.51 1016.61 1016.74 1016.91 1017.12 1017.39 1017.71 1018.08 1018.47 1018.88 1019.28 1019.67 1020.04 1020.37 1020.67 1020.94 1021.19 1021.43 1021.67 1021.90 1022.14 1022.38 1022.61 1022.82 1023.00 1023.14 1023.23 1023.27 1023.25 1023.20 1023.11 1023.02 1022.92 1022.85 1022.81 1022.81 1022.85 1022.92 1023.01 1023.10 1023.17 1023.22 1023.22
1016.34 1016.42 1016.51 1016.61 1016.75 1016.94 1017.18 1017.47 1017.80 1018.17 1018.55 1018.93 1019.30 1019.65 1019.97 1020.25 1020.50 1020.73 1020.95 1021.16 1021.37 1021.58 1021.80 1022.01 1022.21 1022.40 1022.55 1022.66 1022.73 1022.75 1022.74 1022.70 1022.63 1022.57 1022.51 1022.46 1022.44 1022.45 1022.47 1022.50 1022.53 1022.55 1022.54 1022.49
1016.26 1016.34 1016.40 1016.49 1016.61 1016.77 1016.98 1017.24 1017.54 1017.88 1018.23 1018.59 1018.93 1019.25 1019.53 1019.78 1020.00 1020.20 1020.38 1020.55 1020.72 1020.90 1021.09 1021.28 1021.47 1021.65 1021.82 1021.96 1022.06 1022.12 1022.15 1022.15 1022.13 1022.09 1022.04 1021.99 1021.96 1021.93 1021.91 1021.89 1021.87 1021.84 1021.78 1021.71
1016.17 1016.23 1016.28 1016.35 1016.45 1016.58 1016.77 1017.00 1017.28 1017.58 1017.90 1018.22 1018.52 1018.80 1019.04 1019.25 1019.42 1019.57 1019.71 1019.83 1019.96 1020.11 1020.26 1020.44 1020.62 1020.80 1020.98 1021.14 1021.27 1021.37 1021.44 1021.48 1021.48 1021.47 1021.43 1021.39 1021.34 1021.30 1021.25 1021.20 1021.15 1021.09 1021.02 1020.93
1016.05 1016.09 1016.13 1016.19 1016.26 1016.38 1016.54 1016.74 1016.98 1017.25 1017.52 1017.80 1018.05 1018.28 1018.47 1018.63 1018.75 1018.85 1018.94 1019.02 1019.11 1019.22 1019.35 1019.51 1019.68 1019.86 1020.04 1020.22 1020.37 1020.50 1020.60 1020.66 1020.70 1020.70 1020.69 1020.65 1020.61 1020.56 1020.51 1020.46 1020.41 1020.35 1020.28 1020.21
1015.90 1015.93 1015.96 1016.00 1016.06 1016.15 1016.29 1016.46 1016.65 1016.87 1017.10 1017.32 1017.52 1017.69 1017.82 1017.92 1018.00 1018.05 1018.10 1018.14 1018.20 1018.28 1018.39 1018.52 1018.68 1018.86 1019.04 1019.22 1019.39 1019.53 1019.64 1019.73 1019.78 1019.80 1019.80 1019.79 1019.76 1019.73 1019.70 1019.67 1019.64 1019.61 1019.58 1019.54
Thickness
5679 5681 5682 5679 5679 5681 5679 5678 5673 5671 5667 5658 5656 5653 5648 5642 5636 5629 5623 5617 5612 5606 5601 5596 5592 5589 5586 5583 5581 5579 5578 5576 5573 5571 5570 5569 5569 5569 5570 5570 5571 5571 5572 5573
5670 5674 5675 5669 5671 5671 5670 5670 5668 5665 5654 5654 5651 5647 5640 5633 5627 5620 5614 5609 5604 5599 5594 5589 5584 5580 5577 5574 5572 5570 5569 5567 5564 5562 5561 5560 5559 5560 5560 5560 5561 5561 5562 5563
5663 5669 5666 5654 5657 5660 5659 5660 5660 5654 5648 5646 5641 5636 5631 5625 5619 5613 5607 5601 5596 5592 5587 5582 5577 5573 5570 5567 5564 5562 5560 5558 5556 5554 5552 5552 5552 5551 5551 5551 5551 5552 5552 5552
5663 5656 5642 5645 5657 5655 5653 5651 5651 5647 5643 5639 5634 5629 5625 5619 5613 5606 5601 5595 5589 5583 5579 5574 5569 5565 5561 5559 5556 5554 5552 5551 5548 5546 5545 5544 5543 5542 5542 5542 5542 5542 5542 5543
5657 5649 5645 5646 5651 5651 5647 5642 5643 5640 5636 5633 5629 5623 5616 5611 5607 5601 5594 5587 5581 5576 5572 5567 5562 5558 5555 5552 5549 5547 5545 5543 5540 5539 5537 5536 5535 5533 5533 5533 5533 5534 5534 5534
5657 5647 5638 5641 5651 5654 5648 5636 5638 5637 5631 5629 5625 5619 5609 5602 5598 5592 5585 5579 5573 5568 5564 5559 5554 5551 5548 5545 5542 5540 5538 5535 5533 5531 5529 5528 5526 5525 5525 5526 5526 5527 5526 5526
5654 5647 5643 5646 5651 5652 5638 5630 5634 5633 5628 5624 5619 5614 5603 5596 5590 5584 5577 5572 5566 5562 5558 5553 5548 5545 5541 5539 5536 5533 5531 5528 5526 5524 5523 5521 5520 5519 5519 5520 5520 5520 5520 5519
5651 5644 5637 5644 5648 5640 5633 5634 5632 5628 5624 5617 5611 5604 5597 5590 5583 5577 5570 5565 5560 5555 5551 5546 5543 5540 5537 5533 5530 5528 5525 5523 5520 5519 5518 5517 5515 5514 5514 5515 5515 5515 5515 5515
5647 5640 5638 5641 5639 5636 5635 5631 5627 5624 5619 5612 5605 5599 5592 5584 5578 5571 5565 5560 5555 5551 5546 5541 5538 5536 5533 5529 5526 5523 5521 5518 5516 5514 5513 5512 5511 5510 5511 5511 5514 5514 5513 5512
5643 5639 5639 5639 5639 5636 5634 5629 5625 5621 5615 5610 5602 5595 5588 5580 5573 5566 5560 5555 5551 5547 5542 5538 5535 5532 5529 5526 5523 5521 5518 5515 5513 5511 5510 5508 5508 5509 5509 5509 5509 5510 5510 5510
5640 5638 5638 5636 5635 5633 5630 5627 5622 5617 5612 5606 5600 5592 5585 5577 5570 5564 5558 5552 5547 5543 5540 5536 5533 5529 5527 5524 5521 5518 5515 5512 5511 5510 5509 5506 5505 5503 5504 5502 5502 5503 5506 5507
5641 5640 5639 5633 5634 5632 5627 5623 5618 5613 5607 5603 5598 5590 5583 5576 5568 5562 5556 5551 5545 5541 5538 5534 5531 5528 5524 5521 5519 5516 5514 5512 5511 5509 5508 5507 5506 5503 5496 5497 5496 5496 5496 5498
5644 5644 5640 5635 5633 5629 5625 5621 5617 5612 5606 5600 5594 5589 5582 5575 5568 5562 5556 5551 5546 5541 5537 5533 5530 5526 5523 5521 5518 5515 5513 5511 5511 5511 5509 5508 5508 5508 5505 5499 5496 5496 5496 5496
5643 5641 5635 5633 5630 5627 5623 5619 5615 5610 5604 5598 5592 5586 5580 5574 5568 5562 5557 5551 5546 5542 5537 5533 5530 5526 5523 5521 5518 5515 5514 5511 5511 5511 5511 5511 5510 5510 5510 5509 5507 5505 5499 5498
5642 5641 5637 5634 5629 5625 5622 5618 5613 5607 5602 5596 5591 5585 5580 5574 5568 5563 5557 5552 5547 5543 5539 5535 5531 5527 5524 5522 5519 5518 5517 5516 5515 5515 5514 5513 5512 5513 5513 5512 5512 5511 5509 5506
5642 5640 5637 5632 5628 5624 5621 5617 5613 5608 5603 5597 5592 5586 5581 5576 5570 5564 5559 5554 5549 5545 5541 5538 5534 5530 5527 5525 5522 5521 5519 5514 5515 5518 5518 5517 5516 5516 5515 5515 5515 5515 5515 5515
5641 5637 5634 5631 5628 5625 5622 5619 5615 5610 5605 5600 5594 5589 5583 5577 5571 5566 5561 5557 5553 5549 5545 5541 5538 5535 5532 5529 5527 5527 5526 5522 5515 5520 5522 5522 5521 5520 5520 5520 5520 5520 5520 5519
5646 5643 5639 5635 5632 5628 5624 5621 5617 5612 5607 5603 5598 5592 5586 5580 5575 5569 5565 5560 5556 5552 5549 5545 5542 5539 5536 5534 5532 5532 5531 5530 5528 5528 5527 5526 5526 5526 5526 5526 5526 5526 5527 5525
5647 5644 5641 5637 5634 5631 5627 5623 5619 5615 5610 5605 5600 5594 5589 5585 5580 5575 5570 5565 5561 5557 5554 5551 5545 5542 5540 5538 5536 5536 5536 5535 5534 5533 5532 5528 5530 5532 5533 5533 5533 5534 5534 5535
5647 5645 5642 5639 5636 5633 5629 5625 5621 5617 5613 5608 5603 5597 5592 5588 5584 5580 5575 5571 5569 5567 5562 5557 5552 5549 5547 5544 5539 5543 5543 5542 5540 5540 5539 5539 5539 5540 5540 5541 5541 5542 5542 5543
5648 5646 5643 5641 5638 5635 5632 5628 5623 5619 5615 5611 5606 5601 5597 5593 5589 5585 5581 5578 5575 5571 5567 5560 5559 5558 5555 5552 5545 5550 5550 5548 5548 5547 5547 5547 5547 5547 5548 5548 5549 5549 5550 5551
5649 5647 5644 5642 5639 5636 5633 5630 5627 5623 5618 5614 5610 5607 5602 5597 5594 5590 5588 5586 5583 5576 5573 5571 5569 5565 5563 5557 5558 5558 5558 5556 5555 5555 5554 5554 5554 5555 5555 5556 5556 5557 5558 5559
5651 5648 5646 5643 5640 5637 5635 5632 5629 5626 5621 5617 5614 5610 5607 5605 5602 5598 5595 5593 5589 5581 5580 5581 5576 5570 5565 5563 5566 5567 5566 5564 5563 5562 5562 5562 5562 5563 5563 5563 5564 5565 5566 5566
5651 5648 5646 5645 5643 5639 5635 5634 5632 5628 5625 5622 5619 5616 5612 5609 5607 5606 5604 5597 5592 5587 5587 5585 5578 5573 5567 5572 5574 5574 5574 5572 5571 5571 5571 5571 5571 5571 5572 5571 5572 5573 5573 5573
5651 5650 5647 5644 5642 5641 5638 5636 5633 5630 5628 5626 5624 5620 5618 5615 5613 5612 5609 5605 5597 5592 5593 5590 5583 5578 5577 5581 5582 5582 5582 5582 5581 5581 5580 5578 5578 5579 5579 5579 5579 5579 5580 5581
5651 5650 5648 5645 5644 5643 5643 5640 5638 5635 5632 5630 5628 5625 5623 5620 5617 5616 5611 5609 5605 5598 5598 5599 5595 5587 5588 5590 5591 5590 5589 5588 5586 5584 5584 5585 5585 5585 5585 5586 5586 5586 5586 5587
5651 5649 5647 5647 5647 5646 5645 5642 5640 5638 5636 5634 5631 5630 5627 5624 5621 5619 5616 5614 5612 5608 5606 5605 5604 5602 5600 5599 5599 5597 5596 5595 5594 5593 5592 5591 5591 5591 5592 5591 5591 5591 5591 5592